H1 CPF 2 NER 2022 1 5 9 005 01 glonass107 H2 0706501 9107 32393 2022 1 5 0 0 0 2022 1 8 23 45 0 900 1 1 0 0 0 1 H9 10 0 59584 0.00000 0 -20554456.601 8126097.464 12708035.500 10 0 59584 900.00000 0 -19151810.755 7110393.542 15250526.731 10 0 59584 1800.00000 0 -17611757.986 5793349.895 17496287.238 10 0 59584 2700.00000 0 -15996853.411 4180996.916 19401585.698 10 0 59584 3600.00000 0 -14369179.176 2292048.732 20929319.921 10 0 59584 4500.00000 0 -12787765.433 157385.421 22049743.584 10 0 59584 5400.00000 0 -11306159.309 -2180979.768 22741048.270 10 0 59584 6300.00000 0 -9970244.155 -4671406.083 22989789.447 10 0 59584 7200.00000 0 -8816400.654 -7254541.675 22791148.082 10 0 59584 8100.00000 0 -7870086.648 -9865571.386 22149022.997 10 0 59584 9000.00000 0 -7144894.776 -12436702.556 21075952.266 10 0 59584 9900.00000 0 -6642126.710 -14899785.365 19592865.390 10 0 59584 10800.00000 0 -6350900.830 -17188958.671 17728671.241 10 0 59584 11700.00000 0 -6248787.622 -19243211.164 15519689.974 10 0 59584 12600.00000 0 -6302944.743 -21008751.084 13008940.236 10 0 59584 13500.00000 0 -6471702.565 -22441085.940 10245295.838 10 0 59584 14400.00000 0 -6706531.952 -23506725.797 7282528.638 10 0 59584 15300.00000 0 -6954309.935 -24184439.534 4178256.803 10 0 59584 16200.00000 0 -7159786.404 -24466012.428 992819.404 10 0 59584 17100.00000 0 -7268146.583 -24356474.399 -2211900.258 10 0 59584 18000.00000 0 -7227560.171 -23873790.586 -5373679.098 10 0 59584 18900.00000 0 -6991608.811 -23048028.540 -8431162.695 10 0 59584 19800.00000 0 -6521488.976 -21920038.224 -11325054.059 10 0 59584 20700.00000 0 -5787897.030 -20539701.291 -13999259.537 10 0 59584 21600.00000 0 -4772516.846 -18963823.914 -16401969.980 10 0 59584 22500.00000 0 -3469047.183 -17253761.927 -18486656.738 10 0 59584 23400.00000 0 -1883725.431 -15472877.872 -20212963.949 10 0 59584 24300.00000 0 -35325.290 -13683935.998 -21547480.817 10 0 59584 25200.00000 0 2045372.207 -11946543.415 -22464380.032 10 0 59584 26100.00000 0 4316613.157 -10314743.312 -22945910.908 10 0 59584 27000.00000 0 6727168.860 -8834859.520 -22982738.606 10 0 59584 27900.00000 0 9218236.629 -7543681.069 -22574123.470 10 0 59584 28800.00000 0 11725665.835 -6467061.319 -21727937.210 10 0 59584 29700.00000 0 14182418.373 -5618989.085 -20460515.542 10 0 59584 30600.00000 0 16521162.945 -5001169.708 -18796349.587 10 0 59584 31500.00000 0 18676896.646 -4603133.104 -16767621.198 10 0 59584 32400.00000 0 20589486.026 -4402863.957 -14413590.166 10 0 59584 33300.00000 0 22206022.598 -4367927.604 -11779843.990 10 0 59584 34200.00000 0 23482894.921 -4457044.421 -8917423.650 10 0 59584 35100.00000 0 24387490.817 -4622046.601 -5881841.330 10 0 59584 36000.00000 0 24899458.244 -4810134.902 -2732008.367 10 0 59584 36900.00000 0 25011471.422 -4966340.032 470906.116 10 0 59584 37800.00000 0 24729469.485 -5036084.283 3664663.857 10 0 59584 38700.00000 0 24072356.895 -4967734.410 6787170.084 10 0 59584 39600.00000 0 23071177.610 -4715036.778 9777685.931 10 0 59584 40500.00000 0 21767797.298 -4239330.448 12578016.426 10 0 59584 41400.00000 0 20213148.705 -3511443.106 15133650.170 10 0 59584 42300.00000 0 18465113.986 -2513188.038 17394827.627 10 0 59584 43200.00000 0 16586133.108 -1238397.214 19317516.610 10 0 59584 44100.00000 0 14640639.096 306554.826 20864275.384 10 0 59584 45000.00000 0 12692428.125 2102759.918 22004986.160 10 0 59584 45900.00000 0 10802075.083 4119319.186 22717444.511 10 0 59584 46800.00000 0 9024503.116 6314398.402 22987793.171 10 0 59584 47700.00000 0 7406809.012 8636752.542 22810791.792 10 0 59584 48600.00000 0 5986435.267 11027656.556 22189917.564 10 0 59584 49500.00000 0 4789764.803 13423162.174 21137294.873 10 0 59584 50400.00000 0 3831196.487 15756586.735 19673455.546 10 0 59584 51300.00000 0 3112739.058 17961130.306 17826934.545 10 0 59584 52200.00000 0 2624139.157 19972511.867 15633709.137 10 0 59584 53100.00000 0 2343536.633 21731514.423 13136492.744 10 0 59584 54000.00000 0 2238617.883 23186332.781 10383897.497 10 0 59584 54900.00000 0 2268217.047 24294625.997 7429482.136 10 0 59584 55800.00000 0 2384295.930 25025188.898 4330704.327 10 0 59584 56700.00000 0 2534217.617 25359173.240 1147798.258 10 0 59584 57600.00000 0 2663216.439 25290808.069 -2057400.099 10 0 59584 58500.00000 0 2716958.857 24827589.968 -5222656.639 10 0 59584 59400.00000 0 2644086.229 23989936.290 -8286547.898 10 0 59584 60300.00000 0 2398631.428 22810316.894 -11189651.276 10 0 59584 61200.00000 0 1942206.958 21331901.816 -13875693.482 10 0 59584 62100.00000 0 1245872.071 19606782.284 -16292635.267 10 0 59584 63000.00000 0 291600.085 17693840.038 -18393671.944 10 0 59584 63900.00000 0 -926715.936 15656354.249 -20138131.029 10 0 59584 64800.00000 0 -2402761.625 13559445.771 -21492250.649 10 0 59584 65700.00000 0 -4117825.443 11467464.745 -22429824.664 10 0 59584 66600.00000 0 -6041348.147 9441429.603 -22932703.025 10 0 59584 67500.00000 0 -8131975.760 7536622.940 -22991138.567 10 0 59584 68400.00000 0 -10339073.409 5800443.050 -22603974.126 10 0 59584 69300.00000 0 -12604638.443 4270599.257 -21778666.635 10 0 59584 70200.00000 0 -14865534.854 2973724.939 -20531147.633 10 0 59584 71100.00000 0 -17055957.611 1924464.928 -18885522.373 10 0 59584 72000.00000 0 -19110025.779 1125074.588 -16873612.585 10 0 59584 72900.00000 0 -20964397.666 565546.686 -14534350.685 10 0 59584 73800.00000 0 -22560799.901 224260.402 -11913035.974 10 0 59584 74700.00000 0 -23848365.303 69125.130 -9060466.148 10 0 59584 75600.00000 0 -24785681.960 59170.947 -6031959.927 10 0 59584 76500.00000 0 -25342467.442 146518.706 -2886288.956 10 0 59584 77400.00000 0 -25500797.326 278646.619 315460.657 10 0 59584 78300.00000 0 -25255835.686 400857.210 3511075.196 10 0 59584 79200.00000 0 -24616035.906 458839.833 6638425.332 10 0 59584 80100.00000 0 -23602802.454 401219.498 9636679.106 10 0 59584 81000.00000 0 -22249627.051 181983.062 12447491.667 10 0 59584 81900.00000 0 -20600734.880 -237321.237 15016147.832 10 0 59584 82800.00000 0 -18709297.397 -885705.380 17292634.376 10 0 59584 83700.00000 0 -16635286.582 -1781265.291 19232620.498 10 0 59584 84600.00000 0 -14443060.701 -2930170.642 20798326.843 10 0 59584 85500.00000 0 -12198782.972 -4326164.831 21959265.662 10 0 59585 0.00000 0 -9967781.642 -5950597.505 22692837.515 10 0 59585 900.00000 0 -7811960.872 -7772990.464 22984773.113 10 0 59585 1800.00000 0 -5787373.791 -9752111.957 22829410.825 10 0 59585 2700.00000 0 -3942054.952 -11837518.124 22229805.909 10 0 59585 3600.00000 0 -2314205.349 -13971495.453 21197668.380 10 0 59585 4500.00000 0 -930803.976 -16091324.123 19753131.384 10 0 59585 5400.00000 0 193296.857 -18131767.577 17924354.682 10 0 59585 6300.00000 0 1055755.916 -20027684.213 15746971.120 10 0 59585 7200.00000 0 1666592.513 -21716651.796 13263387.154 10 0 59585 8100.00000 0 2047509.187 -23141494.658 10521951.326 10 0 59585 9000.00000 0 2230717.872 -24252607.840 7576007.220 10 0 59585 9900.00000 0 2257320.772 -25009980.793 4482849.865 10 0 59585 10800.00000 0 2175315.991 -25384836.074 1302606.390 10 0 59585 11700.00000 0 2037313.613 -25360814.665 -1902936.776 10 0 59585 12600.00000 0 1898060.044 -24934658.788 -5071536.746 10 0 59585 13500.00000 0 1811876.240 -24116364.264 -8141703.276 10 0 59585 14400.00000 0 1830118.837 -22928796.801 -11053890.441 10 0 59585 15300.00000 0 1998771.827 -21406789.076 -13751647.606 10 0 59585 16200.00000 0 2356270.684 -19595757.074 -16182707.691 10 0 59585 17100.00000 0 2931650.730 -17549893.969 -18299992.151 10 0 59585 18000.00000 0 3743097.672 -15330017.240 -20062513.933 10 0 59585 18900.00000 0 4796961.326 -13001158.621 -21436161.901 10 0 59585 19800.00000 0 6087274.136 -10629996.775 -22394352.634 10 0 59585 20700.00000 0 7595795.093 -8282238.751 -22918537.943 10 0 59585 21600.00000 0 9292577.958 -6020057.947 -22998559.214 10 0 59585 22500.00000 0 11137041.133 -3899693.703 -22632842.322 10 0 59585 23400.00000 0 13079495.778 -1969310.965 -21828429.638 10 0 59585 24300.00000 0 15063069.931 -267207.536 -20600848.418 10 0 59585 25200.00000 0 17025950.003 1179557.753 -18973817.631 10 0 59585 26100.00000 0 18903847.591 2356059.845 -16978798.127 10 0 59585 27000.00000 0 20632590.035 3259888.748 -14654393.819 10 0 59585 27900.00000 0 22150727.569 3901001.967 -12045614.289 10 0 59585 28800.00000 0 23402048.648 4301054.577 -9203012.006 10 0 59585 29700.00000 0 24337898.409 4492235.279 -6181709.864 10 0 59585 30600.00000 0 24919202.880 4515657.524 -3040337.070 10 0 59585 31500.00000 0 25118113.385 4419373.619 160106.322 10 0 59585 32400.00000 0 24919201.166 4256095.904 3357434.384 10 0 59585 33300.00000 0 24320150.936 4080721.740 6489486.562 10 0 59585 34200.00000 0 23331922.997 3947767.627 9495341.106 10 0 59585 35100.00000 0 21978375.981 3908821.958 12316506.454 10 0 59585 36000.00000 0 20295365.072 4010125.308 14898066.593 10 0 59585 36900.00000 0 18329352.830 4290381.928 17189757.276 10 0 59585 37800.00000 0 16135590.388 4778896.369 19146951.436 10 0 59585 38700.00000 0 13775944.961 5494115.417 20731534.068 10 0 59585 39600.00000 0 11316464.622 6442638.246 21912649.047 10 0 59585 40500.00000 0 8824782.214 7618737.836 22667303.175 10 0 59585 41400.00000 0 6367466.961 9004415.006 22980815.571 10 0 59585 42300.00000 0 4007434.438 10569983.730 22847103.704 10 0 59585 43200.00000 0 1801522.875 12275163.946 22268800.596 10 0 59585 44100.00000 0 -201663.474 14070636.610 21257201.081 10 0 59585 45000.00000 0 -1963554.372 15899996.029 19832038.320 10 0 59585 45900.00000 0 -3456982.865 17702017.833 18021095.122 10 0 59585 46800.00000 0 -4667067.751 19413147.485 15859657.786 10 0 59585 47700.00000 0 -5591573.746 20970104.816 13389823.385 10 0 59585 48600.00000 0 -6240736.018 22312495.187 10659674.245 10 0 59585 49500.00000 0 -6636558.325 23385317.518 7722336.033 10 0 59585 50400.00000 0 -6811616.161 24141263.734 4634938.317 10 0 59585 51300.00000 0 -6807417.233 24542713.079 1457498.316 10 0 59585 52200.00000 0 -6672390.177 24563337.627 -1748249.901 10 0 59585 53100.00000 0 -6459587.917 24189251.836 -4920057.396 10 0 59585 54000.00000 0 -6224203.922 23419658.276 -7996369.748 10 0 59585 54900.00000 0 -6021007.244 22266962.948 -10917520.116 10 0 59585 55800.00000 0 -5901805.196 20756355.877 -13626882.706 10 0 59585 56700.00000 0 -5913041.122 18924875.008 -16071964.530 10 0 59585 57600.00000 0 -6093628.559 16819992.867 -18205414.848 10 0 59585 58500.00000 0 -6473112.940 14497785.117 -19985933.424 10 0 59585 59400.00000 0 -7070237.997 12020757.191 -21379061.001 10 0 59585 60300.00000 0 -7891977.028 9455418.902 -22357837.763 10 0 59585 61200.00000 0 -8933069.735 6869707.160 -22903318.020 10 0 59585 62100.00000 0 -10176084.423 4330362.672 -23004932.068 10 0 59585 63000.00000 0 -11592003.616 1900368.191 -22660688.880 10 0 59585 63900.00000 0 -13141309.555 -363446.740 -21877215.969 10 0 59585 64800.00000 0 -14775525.467 -2412536.642 -20669635.642 10 0 59585 65700.00000 0 -16439149.588 -4208419.411 -19061279.525 10 0 59585 66600.00000 0 -18071902.548 -5724031.248 -17083246.162 10 0 59585 67500.00000 0 -19611195.500 -6944601.784 -14773809.203 10 0 59585 68400.00000 0 -20994716.857 -7868013.630 -12177686.466 10 0 59585 69300.00000 0 -22163030.050 -8504631.773 -9345182.933 10 0 59585 70200.00000 0 -23062073.768 -8876610.276 -6331223.245 10 0 59585 71100.00000 0 -23645459.662 -9016705.632 -3194291.632 10 0 59585 72000.00000 0 -23876470.425 -8966646.798 4700.554 10 0 59585 72900.00000 0 -23729673.356 -8775130.881 3203597.890 10 0 59585 73800.00000 0 -23192080.322 -8495529.426 6340211.375 10 0 59585 74700.00000 0 -22263803.971 -8183402.755 9353532.273 10 0 59585 75600.00000 0 -20958181.190 -7893928.234 12184925.071 10 0 59585 76500.00000 0 -19301357.294 -7679352.177 14779275.590 10 0 59585 77400.00000 0 -17331347.281 -7586574.247 17086071.014 10 0 59585 78300.00000 0 -15096612.653 -7654967.717 19060390.172 10 0 59585 79200.00000 0 -12654212.750 -7914528.906 20663784.179 10 0 59585 80100.00000 0 -10067607.658 -8384435.128 21865029.848 10 0 59585 81000.00000 0 -7404204.278 -9072073.127 22640740.983 10 0 59585 81900.00000 0 -4732747.922 -9972579.915 22975825.558 10 0 59585 82800.00000 0 -2120668.274 -11068916.177 22863779.873 10 0 59585 83700.00000 0 368509.796 -12332469.786 22306814.106 10 0 59585 84600.00000 0 2677582.897 -13724164.545 21315806.913 10 0 59585 85500.00000 0 4757812.928 -15196027.746 19910090.156 10 0 59586 0.00000 0 6570709.250 -16693150.685 18117068.271 10 0 59586 900.00000 0 8089376.757 -18155960.469 15971678.859 10 0 59586 1800.00000 0 9299372.418 -19522705.412 13515707.708 10 0 59586 2700.00000 0 10199039.270 -20732051.970 10796968.698 10 0 59586 3600.00000 0 10799303.163 -21725681.707 7868367.193 10 0 59586 4500.00000 0 11122943.701 -22450779.548 4786864.802 10 0 59586 5400.00000 0 11203371.833 -22862308.313 1612366.284 10 0 59586 6300.00000 0 11082967.487 -22924973.735 -1593449.211 10 0 59586 7200.00000 0 10811048.991 -22614797.297 -4768329.204 10 0 59586 8100.00000 0 10441561.463 -21920230.950 -7850657.517 10 0 59586 9000.00000 0 10030582.867 -20842767.065 -10780648.713 10 0 59586 9900.00000 0 9633753.744 -19397018.345 -13501504.007 10 0 59586 10800.00000 0 9303739.505 -17610264.596 -15960506.525 10 0 59586 11700.00000 0 9087832.358 -15521485.457 -18110035.164 10 0 59586 12600.00000 0 9025793.704 -13179919.495 -19908478.107 10 0 59586 13500.00000 0 9148027.471 -10643209.491 -21321029.308 10 0 59586 14400.00000 0 9474160.807 -7975210.499 -22320353.584 10 0 59586 15300.00000 0 10012091.419 -5243551.060 -22887108.426 10 0 59586 16200.00000 0 10757541.464 -2517047.613 -23010313.388 10 0 59586 17100.00000 0 11694136.885 136921.964 -22687560.545 10 0 59586 18000.00000 0 12794009.400 2654978.202 -21925062.260 10 0 59586 18900.00000 0 14018896.780 4980128.639 -20737535.303 10 0 59586 19800.00000 0 15321696.485 7063887.555 -19147923.104 10 0 59586 20700.00000 0 16648408.807 8868039.976 -17186960.774 10 0 59586 21600.00000 0 17940389.420 10365977.713 -14892590.299 10 0 59586 22500.00000 0 19136818.033 11543552.561 -12309236.041 10 0 59586 23400.00000 0 20177280.437 12399411.569 -9486953.495 10 0 59586 24300.00000 0 21004356.016 12944800.713 -6480466.747 10 0 59586 25200.00000 0 21566102.037 13202845.435 -3348112.473 10 0 59586 26100.00000 0 21818329.800 13207338.361 -150710.533 10 0 59586 27000.00000 0 21726576.023 13001085.429 3049617.079 10 0 59586 27900.00000 0 21267685.257 12633880.381 6190655.884 10 0 59586 28800.00000 0 20430935.260 12160193.517 9211313.075 10 0 59586 29700.00000 0 19218656.393 11636672.931 12052811.985 10 0 59586 30600.00000 0 17646317.356 11119564.596 14659842.866 10 0 59586 31500.00000 0 15742072.258 10662161.254 16981646.701 10 0 59586 32400.00000 0 13545786.708 10312388.923 18973010.301 10 0 59586 33300.00000 0 11107582.730 10110634.020 20595152.693 10 0 59586 34200.00000 0 8485962.703 10087903.827 21816485.084 10 0 59586 35100.00000 0 5745590.188 10264398.820 22613229.375 10 0 59586 36000.00000 0 2954819.979 10648557.831 22969883.069 10 0 59586 36900.00000 0 183080.220 11236616.868 22879521.528 10 0 59586 37800.00000 0 -2501784.510 12012700.598 22343931.818 10 0 59586 38700.00000 0 -5036098.707 12949442.886 21373575.644 10 0 59586 39600.00000 0 -7362762.617 14009110.335 19987382.276 10 0 59586 40500.00000 0 -9433380.395 15145181.442 18212375.671 10 0 59586 41400.00000 0 -11210021.793 16304314.716 16083143.200 10 0 59586 42300.00000 0 -12666544.824 17428622.514 13641156.585 10 0 59586 43200.00000 0 -13789425.509 18458154.468 10933958.545 10 0 59586 44100.00000 0 -14578061.537 19333485.428 8014231.309 10 0 59586 45000.00000 0 -15044538.838 19998298.436 4938765.651 10 0 59586 45900.00000 0 -15212872.772 20401853.472 1767351.011 10 0 59586 46800.00000 0 -15117757.763 20501237.655 -1438391.167 10 0 59586 47700.00000 0 -14802879.782 20263301.878 -4616207.558 10 0 59586 48600.00000 0 -14318864.428 19666202.290 -7704422.790 10 0 59586 49500.00000 0 -13720948.447 18700481.751 -10643135.222 10 0 59586 50400.00000 0 -13066473.801 17369645.959 -13375375.282 10 0 59586 51300.00000 0 -12412310.542 15690210.120 -15848204.164 10 0 59586 52200.00000 0 -11812317.226 13691214.189 -18013732.083 10 0 59586 53100.00000 0 -11314945.649 11413226.850 -19830037.034 10 0 59586 54000.00000 0 -10961090.221 8906879.403 -21261967.279 10 0 59586 54900.00000 0 -10782271.790 6230989.958 -22281813.059 10 0 59586 55800.00000 0 -10799231.560 3450355.116 -22869835.544 10 0 59586 56700.00000 0 -11020993.602 633299.631 -23014643.735 10 0 59586 57600.00000 0 -11444434.985 -2150915.706 -22713412.676 10 0 59586 58500.00000 0 -12054381.577 -4834721.915 -21971939.099 10 0 59586 59400.00000 0 -12824225.828 -7354798.082 -20804533.403 10 0 59586 60300.00000 0 -13717041.356 -9654451.537 -19233749.632 10 0 59586 61200.00000 0 -14687148.475 -11685724.398 -17289957.940 10 0 59586 62100.00000 0 -15682066.057 -13411140.155 -15010766.814 10 0 59586 63000.00000 0 -16644768.832 -14805018.414 -12440305.078 10 0 59586 63900.00000 0 -17516156.124 -15854303.494 -9628376.470 10 0 59586 64800.00000 0 -18237628.826 -16558872.663 -6629502.118 10 0 59586 65700.00000 0 -18753666.336 -16931311.219 -3501868.648 10 0 59586 66600.00000 0 -19014294.659 -16996163.897 -306201.870 10 0 59586 67500.00000 0 -18977340.994 -16788694.131 2895412.270 10 0 59586 68400.00000 0 -18610378.613 -16353203.512 6040736.462 10 0 59586 69300.00000 0 -17892278.678 -15740982.516 9068596.498 10 0 59586 70200.00000 0 -16814301.924 -15007979.381 11920077.194 10 0 59586 71100.00000 0 -15380682.508 -14212286.130 14539675.781 10 0 59586 72000.00000 0 -13608677.770 -13411548.603 16876389.423 10 0 59586 72900.00000 0 -11528080.257 -12660410.708 18884715.030 10 0 59586 73800.00000 0 -9180211.046 -12008101.574 20525541.323 10 0 59586 74700.00000 0 -6616435.520 -11496268.281 21766915.272 10 0 59586 75600.00000 0 -3896262.764 -11157146.219 22584667.784 10 0 59586 76500.00000 0 -1085107.325 -11012144.794 22962886.341 10 0 59586 77400.00000 0 1748193.640 -11070908.422 22894225.352 10 0 59586 78300.00000 0 4534004.682 -11330892.554 22380048.331 10 0 59586 79200.00000 0 7204548.806 -11777472.566 21430399.200 10 0 59586 80100.00000 0 9696486.218 -12384580.760 20063803.471 10 0 59586 81000.00000 0 11953308.052 -13115844.289 18306903.320 10 0 59586 81900.00000 0 13927445.921 -13926175.623 16193933.803 10 0 59586 82800.00000 0 15582009.974 -14763747.954 13766050.688 10 0 59586 83700.00000 0 16892083.929 -15572271.631 11070523.239 10 0 59586 84600.00000 0 17845524.249 -16293474.972 8159808.005 10 0 59586 85500.00000 0 18443231.404 -16869684.128 5090522.172 10 0 59587 0.00000 0 18698883.596 -17246392.541 1922337.245 10 0 59587 900.00000 0 18638145.978 -17374711.217 -1283186.591 10 0 59587 1800.00000 0 18297390.099 -17213595.613 -4463797.842 10 0 59587 2700.00000 0 17721979.623 -16731755.666 -7557764.799 10 0 59587 3600.00000 0 16964195.493 -15909167.773 -10505072.294 10 0 59587 4500.00000 0 16080889.253 -14738125.275 -13248582.403 10 0 59587 5400.00000 0 15130964.031 -13223783.200 -15735136.551 10 0 59587 6300.00000 0 14172789.526 -11384174.279 -17916578.139 10 0 59587 7200.00000 0 13261659.648 -9249695.345 -19750676.526 10 0 59587 8100.00000 0 12447399.233 -6862085.122 -21201935.490 10 0 59587 9000.00000 0 11772219.633 -4272935.316 -22242271.548 10 0 59587 9900.00000 0 11268912.331 -1541796.084 -22851550.029 10 0 59587 10800.00000 0 10959455.491 1266046.617 -23017969.475 10 0 59587 11700.00000 0 10854091.130 4082031.005 -22738287.637 10 0 59587 12600.00000 0 10950911.097 6836916.213 -22017885.006 10 0 59587 13500.00000 0 11235969.045 9463409.794 -20870664.685 10 0 59587 14400.00000 0 11683913.856 11898718.584 -19318790.115 10 0 59587 15300.00000 0 12259118.425 14086918.404 -17392265.002 10 0 59587 16200.00000 0 12917257.095 15981045.359 -15128362.591 10 0 59587 17100.00000 0 13607266.287 17544822.603 -12570914.165 10 0 59587 18000.00000 0 14273606.616 18753951.136 -9769469.448 10 0 59587 18900.00000 0 14858731.874 19596911.065 -6778344.116 10 0 59587 19800.00000 0 15305661.109 20075239.870 -3655572.039 10 0 59587 20700.00000 0 15560545.282 20203275.933 -461782.132 10 0 59587 21600.00000 0 15575119.661 20007377.979 2740978.629 10 0 59587 22500.00000 0 15308937.512 19524653.194 5890453.012 10 0 59587 23400.00000 0 14731289.514 18801247.577 8925388.214 10 0 59587 24300.00000 0 13822726.297 17890270.775 11786733.183 10 0 59587 25200.00000 0 12576118.147 16849443.257 14418794.547 10 0 59587 26100.00000 0 10997205.422 15738565.599 16770327.814 10 0 59587 27000.00000 0 9104614.734 14616917.229 18795541.881 10 0 59587 27900.00000 0 6929338.573 13540694.990 20454996.747 10 0 59587 28800.00000 0 4513698.807 12560600.159 21716376.412 10 0 59587 29700.00000 0 1909836.288 11719676.117 22555121.714 10 0 59587 30600.00000 0 -822211.245 11051488.119 22954910.644 10 0 59587 31500.00000 0 -3616763.305 10578722.017 22907976.776 10 0 59587 32400.00000 0 -6404989.336 10312260.859 22415259.715 10 0 59587 33300.00000 0 -9117536.420 10250777.994 21486384.762 10 0 59587 34200.00000 0 -11687182.720 10380863.392 20139472.326 10 0 59587 35100.00000 0 -14051406.452 10677677.219 18400780.967 10 0 59587 36000.00000 0 -16154763.682 11106102.398 16304191.177 10 0 59587 36900.00000 0 -17950976.245 11622346.749 13890540.159 10 0 59587 37800.00000 0 -19404643.328 12175926.211 11206820.865 10 0 59587 38700.00000 0 -20492506.173 12711944.579 8305261.173 10 0 59587 39600.00000 0 -21204214.057 13173572.584 5242301.648 10 0 59587 40500.00000 0 -21542560.887 13504620.831 2077492.297 10 0 59587 41400.00000 0 -21523184.046 13652097.171 -1127669.699 10 0 59587 42300.00000 0 -21173739.704 13568639.954 -4310938.005 10 0 59587 43200.00000 0 -20532590.905 13214723.980 -7410527.187 10 0 59587 44100.00000 0 -19647065.045 12560545.787 -10366310.985 10 0 59587 45000.00000 0 -18571355.246 11587508.668 -13120985.361 10 0 59587 45900.00000 0 -17364154.739 10289244.762 -15621173.968 10 0 59587 46800.00000 0 -16086124.193 8672131.091 -17818455.093 10 0 59587 47700.00000 0 -14797298.390 6755277.666 -19670290.831 10 0 59587 48600.00000 0 -13554540.760 4569987.689 -21140841.477 10 0 59587 49500.00000 0 -12409151.792 2158711.657 -22201650.448 10 0 59587 50400.00000 0 -11404730.624 -426461.919 -22832187.464 10 0 59587 51300.00000 0 -10575378.283 -3125717.645 -23020240.472 10 0 59587 52200.00000 0 -9944316.755 -5873748.275 -22762149.405 10 0 59587 53100.00000 0 -9522980.778 -8602222.379 -22062877.638 10 0 59587 54000.00000 0 -9310619.747 -11242383.958 -20935919.763 10 0 59587 54900.00000 0 -9294426.022 -13727677.768 -19403047.084 10 0 59587 55800.00000 0 -9450184.272 -15996292.765 -17493895.052 10 0 59587 56700.00000 0 -9743414.830 -17993519.246 -15245399.633 10 0 59587 57600.00000 0 -10130963.510 -19673822.541 -12701092.368 10 0 59587 58500.00000 0 -10562971.544 -21002547.373 -9910266.660 10 0 59587 59400.00000 0 -10985143.166 -21957182.045 -6927030.388 10 0 59587 60300.00000 0 -11341215.549 -22528129.544 -3809262.318 10 0 59587 61200.00000 0 -11575526.860 -22718953.049 -617492.127 10 0 59587 62100.00000 0 -11635573.638 -22546085.219 2586274.488 10 0 59587 63000.00000 0 -11474448.664 -22038013.179 5739762.676 10 0 59587 63900.00000 0 -11053055.196 -21233973.241 8781643.329 10 0 59587 64800.00000 0 -10342002.574 -20182210.248 11652731.779 10 0 59587 65700.00000 0 -9323101.437 -18937874.979 14297146.259 10 0 59587 66600.00000 0 -7990393.712 -17560648.438 16663402.697 10 0 59587 67500.00000 0 -6350672.100 -16112193.581 18705423.888 10 0 59587 68400.00000 0 -4423465.403 -14653542.239 20383442.759 10 0 59587 69300.00000 0 -2240488.746 -13242527.776 21664781.688 10 0 59587 70200.00000 0 155419.697 -11931371.918 22524492.428 10 0 59587 71100.00000 0 2711832.158 -10764527.496 22945844.091 10 0 59587 72000.00000 0 5368671.626 -9776867.900 22920649.628 10 0 59587 72900.00000 0 8060478.802 -8992299.195 22449424.582 10 0 59587 73800.00000 0 10718911.548 -8422852.792 21541375.115 10 0 59587 74700.00000 0 13275372.876 -8068296.240 20214215.680 10 0 59587 75600.00000 0 15663658.183 -7916277.648 18493820.066 10 0 59587 76500.00000 0 17822511.572 -7942996.648 16413712.724 10 0 59587 77400.00000 0 19697984.843 -8114372.514 14014410.525 10 0 59587 78300.00000 0 21245501.080 -8387659.023 11342628.031 10 0 59587 79200.00000 0 22431537.214 -8713436.684 8450362.060 10 0 59587 80100.00000 0 23234855.882 -9037897.075 5393873.889 10 0 59587 81000.00000 0 23647236.112 -9305321.698 2232589.399 10 0 59587 81900.00000 0 23673673.359 -9460649.621 -972060.886 10 0 59587 82800.00000 0 23332041.903 -9452024.632 -4157838.661 10 0 59587 83700.00000 0 22652235.209 -9233213.652 -7262907.872 10 0 59587 84600.00000 0 21674821.734 -8765793.826 -10227034.131 10 0 59587 85500.00000 0 20449273.848 -8021015.782 -12992750.004 99